Location: Unspecified
(68.0319°N, 0.0000°E)
Time: 00:45:56
(UTC+00:00)

Daily predictions for brighter satellites

Satellite Brightness Start Highest point End
(mag) Time Altitude Azimuth Time Altitude Azimuth Time Altitude Azimuth
RESURS DK-1 4.0 00:06:06 18° SE 00:06:34 18° ESE 00:09:20 10° ENE
Cosmos 1743 3.5 00:05:01 10° N 00:07:54 34° ENE 00:09:37 19° ESE
Cosmos 1656 3.6 00:03:14 10° WNW 00:08:43 89° NNE 00:14:11 10° ESE
SJ 16-02 1.3 00:05:01 10° NW 00:09:21 80° NE 00:12:36 17° SE
SL-16 R/B 4.3 00:03:51 10° E 00:09:22 34° NNE 00:14:55 10° NW
Cosmos 1400 Rocket 3.1 00:08:41 24° SW 00:10:39 53° WNW 00:14:12 10° NNE
Cosmos 921 Rocket 3.1 00:06:59 10° NW 00:11:25 63° WSW 00:13:31 30° SSE
USA 281 3.3 00:08:49 21° SSE 00:13:24 64° SW 00:19:58 10° NW
Cosmos 332 Rocket 4.2 00:09:07 10° NW 00:13:59 64° NNE 00:18:50 10° ESE
Tsikada Rocket 4.3 00:09:18 10° NNW 00:15:45 71° ENE 00:20:52 17° SSE
Cosmos 1898 Rocket 4.0 00:10:40 10° WSW 00:15:52 60° NNW 00:21:03 10° NE
Cosmos 2251 Rocket 3.5 00:11:18 10° NW 00:16:38 87° NE 00:21:44 11° SE
Cosmos 1908 Rocket 3.8 00:15:47 25° SW 00:18:15 66° WNW 00:22:37 10° NNE
Cosmos 1125 Rocket 3.7 00:16:01 27° S 00:18:42 57° ESE 00:23:52 10° NE
Cosmos 1140 Rocket 3.8 00:14:11 10° NW 00:19:12 49° WSW 00:21:38 28° S
Cosmos 1190 Rocket 4.0 00:14:15 10° NW 00:19:36 87° NE 00:24:52 10° SE
Landsat 5 4.0 00:16:35 10° NNE 00:20:27 44° ESE 00:22:10 28° SSE
Cosmos 1934 Rocket 4.2 00:16:36 20° SSW 00:21:10 72° WNW 00:27:28 10° NNE
CZ-2C R/B 3.8 00:16:53 10° NNE 00:21:28 72° WNW 00:24:07 24° SW
ARGOS Delta rocket 3.7 00:17:54 10° NNE 00:22:22 68° ESE 00:24:27 30° S
Cosmos 1816 Rocket 4.5 00:16:49 10° NNW 00:23:10 81° WSW 00:27:12 23° S
Cosmos 2297 4.3 00:18:03 10° NW 00:23:21 39° WSW 00:25:55 26° S
Cosmos 1943 Rocket 4.4 00:22:09 10° WNW 00:23:54 11° W 00:25:40 10° WSW
Cosmos 2360 Rocket 2.4 00:19:07 10° WSW 00:24:47 74° NNW 00:30:29 10° ENE
Cosmos 1535 Rocket 4.4 00:20:59 24° SSW 00:24:54 87° WNW 00:31:05 10° NNE
Cosmos 1782 Rocket 3.5 00:23:20 30° SSW 00:25:28 85° WNW 00:29:50 10° NNE
Cosmos 1869 3.1 00:24:50 34° SW 00:26:12 71° WNW 00:29:46 10° NNE
ATLAS 5 CENTAUR R/B 1.5 00:23:03 10° WSW 00:26:15 39° S 00:30:04 10° ESE
Cosmos 2322 Rocket 2.4 00:21:29 10° WSW 00:27:08 73° NNW 00:32:47 10° ENE
SL-19 R/B 4.3 00:28:08 32° W 00:28:08 32° W 00:30:22 10° NW
Cosmos 2322 3.7 00:24:41 16° SW 00:29:19 78° SE 00:35:04 10° ENE
SL-16 R/B 2.6 00:24:17 10° W 00:29:58 68° N 00:35:39 10° ENE
H-2A R/B 4.0 00:29:27 10° ESE 00:32:47 30° NE 00:36:03 10° NNW
Cosmos 1174 4.2 00:29:24 10° WNW 00:33:02 34° SW 00:33:07 34° SW
NOSS 3-4 (A) 4.2 00:31:16 24° S 00:33:17 31° SE 00:38:40 10° ENE
Cosmos 1605 Rocket 3.9 00:29:35 24° SSW 00:33:31 84° WNW 00:39:40 10° NNE
NOSS 3-4 (C) 4.2 00:31:43 24° S 00:33:46 31° SE 00:39:11 10° ENE
PSLV R/B 3.6 00:29:50 10° NNE 00:34:17 83° WNW 00:36:31 28° SSW
USA 267 4.5 00:31:00 10° E 00:35:49 21° SE 00:37:28 19° SSE
Cosmos 2058 3.9 00:32:18 10° NNW 00:35:52 32° W 00:37:16 25° SW
Cosmos 2151 Rocket 4.3 00:33:41 24° SSE 00:35:56 44° E 00:40:10 10° NNE
Cosmos 2333 4.4 00:30:39 10° WSW 00:36:17 75° NNW 00:41:56 10° ENE
Geosat FO 3.7 00:34:10 10° NE 00:36:55 76° SE 00:37:23 55° SSW
Cosmos 1980 3.8 00:34:12 25° SSW 00:37:28 59° SE 00:43:02 10° NE
Cosmos 2237 Rocket 2.4 00:34:15 25° SSW 00:37:30 57° SE 00:43:06 10° NE
ALOS 2 4.4 00:35:36 16° WSW 00:37:39 21° W 00:41:03 10° NW
Cosmos 192 4.3 00:36:10 21° SW 00:39:33 89° NNW 00:44:31 10° NE
Cosmos 1818 3.6 00:34:35 10° W 00:39:58 59° SSW 00:45:20 10° ESE
NOSS 0 Rocket 4.0 00:36:10 20° SW 00:40:31 66° SE 00:46:43 10° ENE
USA 229 DEB 3.8 00:34:23 10° W 00:40:58 62° S 00:48:27 10° ESE
USA 229 3.8 00:34:27 10° W 00:41:02 62° S 00:48:32 10° ESE
Cosmos 371 Rocket 3.3 00:37:02 10° NW 00:41:48 63° SW 00:44:45 23° SSE
CZ-2C R/B 2.9 00:38:01 10° NNE 00:42:49 73° ESE 00:45:28 27° S
CZ-2C R/B 3.3 00:41:30 24° SSW 00:44:29 44° W 00:49:48 10° NNW
Cosmos 2360 4.1 00:40:41 10° WNW 00:46:23 76° SW 00:52:06 10° SE
Meteor 2-12 Rocket 4.4 00:42:05 10° NNW 00:48:15 88° WSW 00:52:44 19° SSE
Okean 2 Rocket 3.8 00:46:36 23° SSE 00:48:56 45° E 00:53:09 10° NNE
Cosmos 304 Rocket 3.9 00:44:47 10° NW 00:49:26 55° WSW 00:52:00 25° S
Cosmos 676 Rocket 4.0 00:44:24 10° NW 00:49:47 90° S 00:55:07 10° SE
Meteor 2-3 Rocket 3.8 00:44:19 10° NNW 00:49:57 63° WSW 00:53:18 24° S
Cosmos 1937 Rocket 4.2 00:45:16 10° WSW 00:50:30 55° NNW 00:55:43 10° NE
Cosmos 1459 Rocket 4.2 00:46:28 22° S 00:50:40 67° E 00:56:59 10° NNE
COSMOS 2428 2.7 00:47:15 15° SW 00:52:06 85° SSE 00:57:53 10° ENE
NOSS 3-1 (C) 4.4 00:47:13 10° WNW 00:52:51 34° SW 00:57:28 18° S
Cosmos 2100 Rocket 4.1 00:49:36 23° S 00:53:33 71° E 00:59:42 10° NNE
Sich 1 Rocket 4.4 00:51:50 21° SSE 00:54:23 43° E 00:58:36 10° NNE
IDEFIX/ARIANE 42P 4.1 00:50:42 10° NNE 00:55:09 28° E 00:59:14 11° SE
Cosmos 1315 Rocket 2.6 00:53:36 33° SSW 00:55:15 90° E 00:59:05 10° NNE
ATLAS 3B R/B 3.0 00:48:45 10° W 00:56:33 66° S 01:04:14 10° ESE
Cosmos 2298 Rocket 4.5 00:56:17 25° S 00:59:07 49° ESE 01:04:15 10° NE
DELTA 2 DEB (DPAF) 3.7 00:55:42 10° NNE 00:59:20 64° ESE 01:00:49 32° S
Cosmos 2333 Rocket 2.6 00:54:08 10° W 00:59:48 68° N 01:05:28 10° E
Cosmos 1954 Rocket 3.9 00:54:54 10° NW 01:00:13 74° SW 01:05:16 11° SSE
ARIANE 6 FM1 Upper Stage 3.2 01:01:16 31° S 01:01:55 33° S 01:05:31 10° ESE
Cosmos 2173 Rocket 4.0 00:58:27 23° S 01:02:25 76° ESE 01:08:32 10° NNE
Cosmos 1536 Rocket 4.2 00:59:57 10° NNW 01:04:04 41° W 01:05:54 27° SW
Cosmos 1850 Rocket 4.3 00:59:13 10° NW 01:04:30 72° NE 01:09:44 10° ESE
Cosmos 2369 Rocket 3.4 01:00:06 10° WNW 01:04:36 25° WSW 01:06:27 21° SW
Cosmos 2219 Rocket 2.4 01:01:05 10° W 01:06:42 71° NNW 01:12:19 10° ENE
Cosmos 1356 Rocket 3.3 01:05:24 30° SSW 01:07:23 90° ENE 01:11:30 10° NNE
Cosmos 2369 4.1 01:04:35 10° WNW 01:10:16 69° NNE 01:15:58 10° E
Cosmos 2151 3.6 01:07:57 10° NNW 01:12:04 55° ENE 01:16:11 10° SE
CZ-4C R/B 2.8 01:11:54 10° NNE 01:15:20 87° ESE 01:16:40 34° SSW
MOZ.5/SAFIR/RUBIN 5/SL-8 4.0 01:11:22 10° SE 01:16:03 74° ENE 01:20:45 10° NNW
Cosmos 407 Rocket 4.1 01:17:52 10° NW 01:22:40 37° WSW 01:25:07 24° SSW
Cosmos 1892 Rocket 3.7 01:18:50 10° NNW 01:23:14 58° W 01:25:39 25° S
Cosmos 1802 Rocket 4.1 01:21:30 21° S 01:26:02 79° ESE 01:32:23 10° NNE
Cosmos 1626 Rocket 3.5 01:23:24 10° NNW 01:27:46 83° ENE 01:31:19 15° SSE
Cosmos 2228 4.2 01:26:15 15° SSE 01:29:20 36° E 01:33:14 10° NNE
Cosmos 1943 4.3 01:25:57 17° SSE 01:29:33 32° ESE 01:34:32 10° NE
Cosmos 1697 Rocket 2.6 01:24:06 10° WNW 01:29:48 80° SW 01:35:27 10° SE
GRACE-FO 1 4.5 01:30:06 31° SSW 01:31:32 65° W 01:34:58 10° N
GRACE-FO 2 4.5 01:30:33 31° SSW 01:31:59 65° W 01:35:25 10° N
Aureole 1 Rocket 4.3 01:30:09 10° WNW 01:32:47 27° N 01:35:26 10° ENE
TSX-5 4.2 01:30:34 25° SSW 01:33:04 53° SE 01:36:56 10° ENE
Cosmos 968 Rocket 3.4 01:31:04 10° NW 01:36:14 78° SW 01:41:25 10° SE
Okean 1 Rocket 3.0 01:34:05 24° S 01:36:37 78° ESE 01:40:57 10° NNE
NOSS 3-1 (A) 4.3 01:32:06 10° WNW 01:37:50 36° SW 01:44:52 10° SSE
PSLV R/B 3.8 01:35:51 10° NNE 01:39:41 70° ESE 01:41:47 25° S
SL-16 R/B 2.5 01:36:11 22° SSW 01:39:45 54° SE 01:45:18 10° NE
Cosmos 1743 2.6 01:38:02 10° NNW 01:41:01 44° W 01:41:56 33° SSW
COSMOS 2455 3.4 01:36:18 10° WNW 01:41:42 35° SW 01:46:22 13° S
Cosmos 1980 Rocket 2.2 01:36:01 10° WNW 01:41:44 87° NNE 01:47:28 10° ESE
ACS3 Solar Sail 2.0 01:35:56 10° NNE 01:41:47 64° ESE 01:46:32 17° S
Meteor 2-1 Rocket 4.4 01:37:37 20° S 01:41:50 77° ESE 01:47:45 10° NNE
RESURS DK-1 2.6 01:41:19 26° SSW 01:43:15 52° SE 01:47:07 10° ENE
Cosmos 2237 4.4 01:38:47 10° WNW 01:44:32 76° NNE 01:50:17 10° ESE
Cosmos 2285 Rocket 4.0 01:40:44 19° SW 01:45:27 83° SE 01:51:51 10° NE
Cosmos 2061 Rocket 4.2 01:40:34 17° S 01:45:30 68° E 01:51:40 10° NNE
Cosmos 1725 Rocket 4.0 01:41:30 20° SSW 01:46:09 88° ESE 01:52:32 10° NNE
SJ 16-02 2.0 01:43:16 10° NW 01:47:12 35° WSW 01:49:04 23° SSW
Meteor 1-20 Rocket 4.1 01:43:23 10° NNW 01:49:00 87° WSW 01:54:32 10° SSE
Cosmos 1741 Rocket 4.0 01:43:45 10° NW 01:49:03 85° SW 01:54:22 10° SE
Spot 1 4.0 01:45:28 10° NNE 01:49:38 71° ESE 01:52:09 22° SSW
Cosmos 2278 4.1 01:44:25 10° WNW 01:50:06 67° N 01:55:49 10° E
Cosmos 1782 3.4 01:48:38 18° SSE 01:50:58 43° E 01:54:21 10° NNE
Cosmos 1656 3.9 01:46:56 10° NW 01:52:04 44° SW 01:57:11 10° SSE
SL-16 R/B 3.2 01:46:04 10° SE 01:52:11 59° NE 01:58:21 10° NNW
Cosmos 332 Rocket 3.9 01:49:30 10° NW 01:54:17 56° WSW 01:59:01 10° SSE
Landsat 5 3.9 01:51:27 10° NNE 01:55:21 52° WNW 01:57:58 20° SW
Cosmos 1805 3.6 01:52:10 10° NNW 01:55:24 51° ENE 01:58:38 10° SE
Okean 1-7 Rocket 3.9 01:51:36 10° NNW 01:56:02 67° ENE 02:00:23 10° SSE
Cosmos 292 Rocket 3.7 01:51:44 10° NW 01:56:32 72° SW 02:01:20 10° SSE
Cosmos 2150 Rocket 4.0 01:53:15 20° SW 01:56:50 84° SE 02:02:04 10° NE
Cosmos 2251 Rocket 4.1 01:53:40 10° NW 01:58:31 38° WSW 02:02:04 17° S
Resurs 1-4 Rocket 3.8 01:54:04 10° NNE 01:58:42 29° E 02:03:18 10° SSE
USA 281 4.2 01:55:39 18° SW 01:59:04 28° WSW 02:04:37 10° NW
Cosmos 1125 Rocket 3.8 01:56:10 14° WSW 02:00:45 66° NNW 02:06:02 10° NE
Tsikada Rocket 4.5 01:55:05 10° NNW 02:01:11 47° W 02:05:41 18° SSW
Cosmos 1758 Rocket 3.5 01:59:40 10° NNW 02:03:58 66° WSW 02:07:24 15° S
Cosmos 1076 Rocket 4.2 02:01:08 10° NNW 02:05:24 56° ENE 02:09:40 10° SE
H-2A R/B 2.1 02:02:42 10° SSE 02:06:31 82° WSW 02:10:16 10° NNW
Cosmos 1908 3.5 02:04:29 10° N 02:06:34 34° ENE 02:08:40 10° SE
Cosmos 1455 Rocket 3.1 02:03:56 19° S 02:07:01 80° ESE 02:11:27 10° NNE
ATLAS 5 CENTAUR R/B 2.2 02:04:43 10° W 02:07:49 26° SSW 02:11:27 10° SSE
Cosmos 2360 Rocket 2.6 02:03:36 10° WNW 02:09:16 66° N 02:14:56 10° E
Meteor 1-5 Rocket 4.1 02:05:26 10° NNW 02:10:49 84° ENE 02:16:09 10° SSE
Cosmos 2322 Rocket 2.6 02:06:02 10° WNW 02:11:39 67° N 02:17:17 10° E
Cosmos 2322 4.0 02:07:58 10° W 02:13:43 69° NNW 02:19:29 10° ENE
Cosmos 2151 Rocket 4.0 02:10:55 19° SW 02:13:55 55° WNW 02:18:17 10° NNE
SL-16 R/B 2.5 02:08:51 10° WNW 02:14:33 72° NNE 02:20:15 10° ESE
Cosmos 1953 Rocket 4.3 02:10:14 10° NNW 02:14:38 57° ENE 02:19:03 10° SE
CZ-2D R/B 3.6 02:10:41 10° NNE 02:15:20 32° E 02:19:59 10° SSE
DMSP B5D2-2 4.0 02:11:03 10° SSE 02:16:15 72° WSW 02:21:28 10° NNW
DNEPR-1 R/B 3.9 02:14:56 18° SW 02:17:56 50° SSE 02:22:43 10° E
Meteor 1-25 Rocket 4.3 02:13:21 10° NNW 02:19:11 76° WSW 02:25:02 10° SSE
Cosmos 2233 Rocket 4.0 02:14:27 17° SSW 02:19:36 84° WNW 02:25:58 10° NNE
ADEOS II 3.8 02:15:17 10° NNE 02:19:50 29° E 02:24:22 10° SSE
USA 267 4.1 02:14:39 10° ESE 02:20:25 32° SSE 02:24:48 16° SW
Cosmos 2237 Rocket 2.3 02:16:01 11° WSW 02:21:31 79° NNW 02:27:16 10° ENE
Cosmos 1980 3.8 02:15:58 11° WSW 02:21:32 78° NNW 02:27:13 10° ENE
CZ-2C R/B 3.7 02:18:02 10° NNE 02:22:30 41° NW 02:26:27 13° WSW
Cosmos 1818 4.1 02:18:00 10° WNW 02:22:56 35° SW 02:27:52 10° SSE
NOSS 3-4 (A) 3.6 02:18:39 16° SW 02:23:09 52° SSE 02:29:32 10° E
NOSS 3-4 (C) 3.7 02:19:06 16° SW 02:23:38 52° SSE 02:30:02 10° E
JB-3 4.3 02:22:36 10° SSE 02:26:17 75° ENE 02:29:57 10° NNW
Okean 2 Rocket 3.5 02:23:48 18° SW 02:26:54 54° WNW 02:31:16 10° NNE
NOSS 0 Rocket 4.1 02:20:44 10° WSW 02:27:01 80° NNW 02:33:18 10° ENE
Aureole 3 Rocket 2.8 02:25:14 18° SSW 02:27:48 81° ESE 02:32:22 10° NNE
Cosmos 1315 Rocket 4.2 02:28:18 12° WSW 02:31:17 28° NW 02:34:36 10° NNE
USA 229 DEB 4.0 02:24:43 10° W 02:31:21 50° SSW 02:38:50 10° SE
USA 229 4.0 02:24:46 10° W 02:31:26 51° SSW 02:38:55 10° SE
Cosmos 2016 Rocket 4.2 02:26:20 16° SW 02:31:32 67° WNW 02:37:55 10° NNE
Sich 1 Rocket 3.9 02:29:11 18° SW 02:32:26 57° WNW 02:36:50 10° NNE
IDEFIX/ARIANE 42P 2.6 02:30:08 10° NNE 02:35:21 81° ESE 02:39:55 14° SSW
Cosmos 44 4.5 02:31:59 15° SSW 02:35:45 35° SE 02:40:35 10° ENE
GP-B 3.1 02:31:40 10° N 02:36:05 89° W 02:40:28 10° S
Geosat 4.1 02:31:34 10° ESE 02:36:37 86° NNE 02:41:40 10° NW
COSMOS 2428 3.1 02:30:54 10° W 02:36:39 68° N 02:42:24 10° ENE
Nadezhda 4 Rocket 4.0 02:31:46 10° NNW 02:38:00 65° W 02:44:09 10° S
Cosmos 1602 Rocket 3.7 02:33:43 10° NNW 02:38:03 57° W 02:42:20 10° S
Cosmos 1825 Rocket 3.5 02:34:18 10° NNW 02:38:41 82° WSW 02:43:01 10° SSE
ARIANE 6 FM1 Upper Stage 3.3 02:37:12 13° WSW 02:40:18 32° SSW 02:43:53 10° SE
Nimbus 7 Rocket 4.5 02:34:33 10° NNE 02:40:35 89° ESE 02:46:02 13° SSW
Cosmos 2298 Rocket 4.2 02:36:43 14° WSW 02:41:18 74° NW 02:46:40 10° NE
Cosmos 1933 4.1 02:39:40 10° S 02:43:19 45° E 02:47:00 10° NNE
Cosmos 2333 Rocket 2.4 02:38:50 10° WNW 02:44:32 79° NNE 02:50:14 10° ESE
Spot 2 4.4 02:40:50 10° S 02:45:17 57° WSW 02:50:00 10° NNW
Cosmos 1850 Rocket 4.2 02:41:23 10° NW 02:46:28 50° WSW 02:51:27 10° SSE
ATLAS 3B R/B 3.1 02:39:13 10° W 02:46:51 54° SSW 02:54:15 10° SE
Cosmos 2098 Rocket 4.2 02:42:48 10° S 02:47:45 55° E 02:53:12 10° NNE
Cosmos 2151 3.4 02:44:53 10° NNW 02:48:49 41° W 02:52:22 12° SSW
Cosmos 2219 Rocket 2.6 02:45:32 10° WNW 02:51:08 68° N 02:56:45 10° E
H-2A R/B 3.2 02:47:27 10° NNE 02:52:04 39° E 02:56:42 10° SSE
ALOS 3.2 02:48:52 10° NNE 02:53:16 44° E 02:57:39 10° S
MOZ.5/SAFIR/RUBIN 5/SL-8 4.4 02:49:45 12° SSW 02:53:42 36° W 02:58:04 10° NNW
Cosmos 2369 3.7 02:48:58 10° WNW 02:54:39 77° SW 03:00:21 10° SE
Cosmos 2084 Rocket 4.2 02:55:20 15° SW 02:58:15 34° SSE 03:02:03 10° E
Cosmos 1092 Rocket 4.0 02:55:26 10° NNW 03:01:41 75° WSW 03:07:52 10° S
Cosmos 1470 4.1 02:59:11 10° NNW 03:02:24 38° ENE 03:05:36 10° SE
ADEOS Rocket 3.4 02:56:02 10° NNE 03:02:29 77° ESE 03:09:40 10° SSW
Meteor 1-27 4.4 02:58:19 13° SW 03:03:39 72° WNW 03:09:29 10° NNE
Cosmos 2228 3.1 03:02:29 13° SW 03:06:10 63° WNW 03:10:23 10° NNE
Cosmos 2266 Rocket 4.5 03:02:27 10° NNW 03:08:49 68° ENE 03:15:03 10° SSE
FENGYUN 3A 3.7 03:03:26 10° NNE 03:08:54 87° WNW 03:14:21 10° SSW
MSX 3.9 03:05:20 10° NNE 03:11:05 77° WNW 03:16:45 10° SW
Lacrosse 5 rocket 2.8 03:11:54 11° SSW 03:12:22 11° SSW 03:13:31 10° S
Cosmos 1943 3.3 03:07:42 12° SW 03:12:58 73° SE 03:18:40 10° ENE
Cosmos 1697 Rocket 3.2 03:08:09 10° NW 03:13:18 37° WSW 03:18:24 10° S
TSX-5 3.9 03:09:30 10° WSW 03:14:03 86° NNW 03:17:50 10° ENE
Cosmos 2026 Rocket 4.0 03:08:32 10° NNW 03:14:32 62° W 03:20:36 10° S
Okean 1 Rocket 4.1 03:11:07 11° WSW 03:14:47 33° NW 03:18:46 10° NNE
Aureole 1 Rocket 3.8 03:12:32 10° NW 03:15:20 36° NNE 03:18:16 10° E
Cosmos 968 Rocket 4.3 03:12:58 10° NW 03:17:24 29° WSW 03:21:50 10° SSW
Cosmos 1437 Rocket 3.6 03:15:01 10° S 03:18:14 40° ESE 03:21:29 10° NNE
RESURS DK-1 2.3 03:16:35 10° WSW 03:20:33 78° NNW 03:24:33 10° ENE
Envisat 3.2 03:15:52 10° NNE 03:20:58 72° ESE 03:26:03 10° SSW
NPP 3.7 03:15:43 10° NNE 03:21:09 76° WNW 03:26:33 10° SW
SL-16 R/B 2.3 03:18:04 10° WSW 03:23:47 81° NNW 03:29:31 10° ENE
SJ 16-02 3.4 03:23:15 10° WNW 03:24:08 11° W 03:25:02 10° WSW
ACS3 Solar Sail 2.1 03:18:36 10° NNE 03:24:16 53° NW 03:30:05 10° SW
Cosmos 1980 Rocket 2.4 03:20:05 10° NW 03:25:32 48° SW 03:30:59 10° SSE
Cosmos 1782 3.1 03:22:35 12° SW 03:25:40 42° WNW 03:29:05 10° NNE
COSMOS 2455 4.4 03:23:03 10° WNW 03:26:06 14° WSW 03:29:08 10° SW
Meteor 2-10 4.3 03:23:48 10° NNW 03:28:42 47° W 03:33:43 10° S
Cosmos 2237 4.2 03:23:14 10° WNW 03:28:54 65° SW 03:34:35 10° SE
Cosmos 1805 3.6 03:26:05 10° NNW 03:29:04 32° W 03:32:02 10° SSW
Cosmos 1503 Rocket 4.3 03:24:32 10° NW 03:29:56 77° NE 03:35:17 10° SE
Cosmos 1606 Rocket 4.0 03:26:55 10° S 03:31:20 67° ESE 03:35:46 10° NNE
Cosmos 2061 Rocket 4.4 03:25:30 10° SW 03:31:31 50° NW 03:37:34 10° NNE
Cosmos 2285 Rocket 4.5 03:26:22 10° WSW 03:32:41 59° NNW 03:38:58 10° ENE
Okean 1-7 Rocket 4.2 03:29:51 10° NNW 03:33:53 35° W 03:37:53 10° SSW
Cosmos 2278 3.8 03:28:49 10° WNW 03:34:33 87° SW 03:40:18 10° SE
Cosmos 1975 3.2 03:31:59 10° NNW 03:35:35 59° ENE 03:39:09 10° SE
SL-16 R/B 2.6 03:29:38 10° S 03:35:51 63° WSW 03:42:07 10° NNW
Cosmos 1536 2.5 03:32:38 10° NNW 03:36:22 76° WSW 03:40:04 10° SSE
Cosmos 1908 3.1 03:34:32 10° NW 03:36:24 23° W 03:38:17 10° SSW
COSMO-SKYMED 1 4.3 03:33:31 10° ESE 03:37:19 37° NE 03:41:08 10° NNW
Cosmos 972 Rocket 4.5 03:32:49 10° SW 03:38:35 89° ESE 03:45:06 10° NE
Resurs 1-4 Rocket 2.3 03:33:51 10° NNE 03:39:13 81° ESE 03:44:35 10° SSW
Cosmos 1634 Rocket 4.4 03:33:33 10° S 03:39:43 67° E 03:45:52 10° NNE
H-2A R/B 3.6 03:38:03 10° SW 03:41:01 21° W 03:43:58 10° NW
Cosmos 1898 Rocket 4.4 03:36:19 10° NW 03:41:28 54° NNE 03:46:33 10° E
Cosmos 1076 Rocket 3.9 03:38:36 10° NNW 03:42:41 42° W 03:46:46 10° SSW
Cosmos 1125 Rocket 4.5 03:38:24 10° W 03:43:27 45° N 03:48:32 10° ENE
Meteor 2-9 Rocket 4.3 03:38:44 10° NNW 03:44:23 87° ENE 03:49:52 10° SSE
Cosmos 1455 Rocket 4.1 03:41:08 10° WSW 03:45:09 34° NW 03:49:12 10° NNE
Cosmos 1486 Rocket 4.0 03:42:31 10° NW 03:47:44 81° SW 03:52:57 10° SE
ATLAS 5 CENTAUR R/B 3.2 03:47:30 10° WSW 03:49:03 12° SW 03:50:42 10° SSW
Cosmos 1544 Rocket 3.8 03:45:36 10° SW 03:49:58 56° WNW 03:54:23 10° NNE
Cosmos 1766 2.8 03:48:41 10° NNW 03:51:51 53° WSW 03:54:59 10° S
Cosmos 1953 Rocket 4.0 03:48:08 10° NNW 03:52:20 42° W 03:56:33 10° SSW
Cosmos 2360 Rocket 2.3 03:47:53 10° WNW 03:53:36 88° SSW 03:59:18 10° ESE
ARGOS 4.0 03:49:39 10° NNE 03:55:00 53° ESE 04:00:18 10° S
CZ-2D R/B 2.1 03:50:42 10° NNE 03:55:58 89° ESE 04:01:12 10° SSW
Cosmos 2322 Rocket 2.2 03:50:21 10° WNW 03:56:00 85° SSW 04:01:40 10° SE
Cosmos 2322 4.1 03:52:39 10° WNW 03:58:24 70° NNE 04:04:09 10° E
SL-16 R/B 2.2 03:53:07 10° WNW 03:58:48 70° SW 04:04:26 10° SE
ADEOS II 2.2 03:54:50 10° NNE 04:00:08 82° ESE 04:05:23 10° SSW
